Location: Unspecified
(48.8582°N, 2.2947°E)
Time: 23:05:13
(UTC+02:00)

Daily predictions for brighter satellites

Satellite Brightness Start Highest point End
(mag) Time Altitude Azimuth Time Altitude Azimuth Time Altitude Azimuth
SL-08 RB Rocket 3.8 22:36:36 10° SSE 22:41:16 89° W 22:45:59 10° NNW
USA 215 4.5 22:36:01 10° SSE 22:41:47 32° SW 22:47:35 10° WNW
CENTAUR R/B 4.0 22:41:06 10° NW 22:48:17 44° NNE 22:56:12 10° ESE
Iridium 4 Rocket 4.1 22:44:33 10° SSW 22:50:06 64° W 22:55:13 10° N
ERS-1 Rocket 3.0 22:47:46 10° SSE 22:52:49 88° ENE 22:57:54 10° NNW
Cosmos 2278 Rocket 3.4 22:48:45 10° SSE 22:53:08 23° ESE 22:57:32 10° NE
Cosmos 1300 3.9 22:49:57 10° N 22:53:20 28° ENE 22:56:40 10° SE
Cosmos 1674 2.8 22:50:22 10° S 22:54:07 61° E 22:57:56 10° NNE
Cosmos 2251 Rocket 4.5 22:51:04 10° SSE 22:55:37 29° E 23:00:11 10° NE
ARGOS 3.8 22:52:48 10° S 22:58:07 55° W 23:03:29 10° NNW
CARTOSAT-1 4.3 22:58:26 10° SE 23:02:29 41° ENE 23:06:34 10° N
COSMOS 2406 3.3 22:57:37 10° NNW 23:03:26 83° WSW 23:09:09 10° SSE
Cosmos 1315 Rocket 4.0 22:59:35 10° SSW 23:03:31 46° WNW 23:07:31 10° N
IGS 5A 4.1 23:00:21 10° SE 23:04:11 42° ENE 23:08:08 10° N
CZ-2C R/B 4.0 23:00:28 10° SE 23:05:54 42° ENE 23:11:15 10° N
Cosmos 1726 2.1 23:02:44 10° N 23:06:31 85° E 23:10:17 10° S
Landsat 7 4.0 23:02:34 10° SSE 23:07:16 63° ENE 23:11:59 10° N
Cosmos 1553 Rocket 4.0 23:01:37 10° S 23:07:38 69° E 23:13:41 10° NNE
BREEZE-M DEB (TANK) 3.2 23:00:01 10° SW 23:07:43 52° SSE 23:10:36 10° E
Cosmos-2242 4.1 23:07:44 10° NNW 23:11:55 45° W 23:16:07 10° SSW
Cosmos 1844 Rocket 2.7 23:07:05 10° SSW 23:12:45 88° ESE 23:18:27 10° NNE
Timation 1 Rocket 4.3 23:09:10 10° SSW 23:15:07 79° ESE 23:21:08 10° NNE
Cosmos 1844 3.7 23:09:27 10° SSW 23:15:08 74° ESE 23:20:55 10° NNE
Spot 1 4.5 23:15:45 13° SE 23:19:33 55° ENE 23:24:08 10° N
Cosmos 1386 Rocket 4.5 23:19:01 10° N 23:25:09 76° E 23:30:41 12° SSE
Cosmos 1842 Rocket 3.6 23:21:33 10° N 23:25:55 84° W 23:29:55 12° S
Terra 2.0 23:22:35 14° SSE 23:26:40 64° ENE 23:31:24 10° N
ATLAS 3B R/B 2.9 23:24:46 10° NW 23:31:20 62° WSW 23:36:54 14° SSE
ATLAS 5 CENTAUR R/B 3.0 23:29:57 15° SSE 23:32:07 21° ESE 23:35:45 10° ENE
USA 238 DEB 4.4 23:25:28 10° NW 23:32:18 50° WSW 23:38:36 13° SSE
USA 238 4.3 23:25:35 10° NW 23:32:24 51° WSW 23:38:41 13° SSE
Meteor 1-29 3.5 23:29:26 10° NNE 23:32:41 40° E 23:34:53 18° SSE
Helios 1A 3.4 23:28:58 11° S 23:32:54 60° WSW 23:37:06 10° NNW
SL-14 R/B 3.3 23:31:57 14° S 23:35:13 60° E 23:39:08 10° NNE
Helios 1B rocket 2.5 23:31:40 10° NNE 23:35:45 63° ESE 23:39:26 12° S
APEX 3.2 23:33:00 10° NW 23:35:57 53° WSW 23:38:28 17° S
Cosmos 2082 Rocket 2.8 23:31:23 10° NNW 23:36:58 49° NE 23:41:44 14° SE
Cosmos 1833 Rocket 3.1 23:34:52 10° NNW 23:40:25 56° ENE 23:44:57 15° SE
Cosmos 807 4.1 23:38:56 15° S 23:41:18 86° E 23:44:40 10° N
NOSS 3-2 (A) 4.2 23:37:27 10° NW 23:44:48 64° SW 23:51:31 16° SSE
CZ-2C R/B 3.1 23:44:56 10° NNE 23:50:08 43° E 23:53:47 18° SSE
Iridium 67 3.4 23:49:32 10° N 23:50:51 37° ENE 23:50:51 37° ENE
Spot 4 4.5 23:48:48 17° SE 23:52:16 46° ENE 23:56:56 10° N
SPOT 1/Viking Rocket 4.4 23:49:20 10° S 23:54:11 44° W 23:59:06 10° NNW
H-2A R/B 4.1 23:50:32 10° SW 23:54:45 23° W 23:59:03 10° NW
